Weather History for Deer Park, WA

Change the Weather History Date:

Saturday, November 9, 2013

  Actual Average Record
Temperature  
Mean Temperature 38 °F 36 °F  
Max Temperature 48 °F 45 °F 50 °F (2001)
Min Temperature 27 °F 28 °F 23 °F (2005)
Degree Days  
Heating Degree Days 27 29  
Month to date heating degree days 264 249  
Since 1 July heating degree days 1244 1317  
Cooling Degree Days 0 0  
Month to date cooling degree days 0 0  
Year to date cooling degree days 310 187  
Moisture  
Dew Point 34 °F    
Average Humidity 80    
Maximum Humidity 100    
Minimum Humidity 60    
Precipitation  
Precipitation 0.03 in 0.10 in 0.28 in (2006)
Month to date precipitation 1.35 0.92  
Year to date precipitation 16.10 16.98  
Sea Level Pressure  
Sea Level Pressure 30.20 in    
Wind  
Wind Speed 6 mph (NNE)    
Max Wind Speed 12 mph    
Max Gust Speed 28 mph    
Visibility 9 miles    
Events Rain    
T = Trace of Precipitation, MM = Missing Value Source: NWS Daily Summary

Daily Weather History Graph

Daily Weather History Graph

Search for Another Location

Airport:

Trip Planner

Search our weather history database for the weather conditions in past years. The results will help you decide how hot, cold, wet, or windy it might be!

Date:

Astronomy

Nov. 09, 2013 Rise Set
Actual Time 6:47 AM PST 4:19 PM PST
Civil Twilight 6:14 AM PST 4:52 PM PST
Nautical Twilight 5:36 AM PST 5:29 PM PST
Astronomical Twilight 5:00 AM PST 6:05 PM PST
Moon 12:22 PM PST (11/9) 11:01 PM PST (11/9)
Length of Visible Light 10h 38m
Length of Day
9h 31m
Waxing Crescent, 45% of the Moon is Illuminated
Nov 9
Waxing Crescent
Nov 9
First Quarter
Nov 17
Full
Nov 25
Last Quarter
Dec 2
New

Hourly Weather History & Observations

Time (PST) Temp. Windchill Dew Point Humidity Pressure Visibility Wind Dir Wind Speed Gust Speed Precip Events Conditions
12:02 AM 28.4 °F - 26.6 °F 93% 30.16 in 4.0 mi Calm Calm - N/A   Overcast
12:53 AM 30.0 °F - 28.9 °F 96% 30.20 in 10.0 mi Calm Calm - N/A   Overcast
1:53 AM 33.1 °F - 30.9 °F 92% 30.21 in 10.0 mi Calm Calm - N/A   Overcast
2:26 AM 33.8 °F 30.8 °F 32.0 °F 93% 30.17 in 7.0 mi North 3.5 mph - N/A   Overcast
2:53 AM 34.0 °F 31.0 °F 33.1 °F 96% 30.22 in 7.0 mi NE 3.5 mph - N/A   Overcast
3:53 AM 36.0 °F - 34.0 °F 93% 30.22 in 10.0 mi Calm Calm - N/A   Overcast
4:18 AM 35.6 °F - 33.8 °F 93% 30.18 in 10.0 mi Calm Calm - N/A   Overcast
4:53 AM 35.1 °F 32.2 °F 34.0 °F 96% 30.23 in 10.0 mi ENE 3.5 mph - N/A   Overcast
5:53 AM 36.0 °F - 34.0 °F 93% 30.24 in 10.0 mi Calm Calm - N/A   Overcast
6:53 AM 35.1 °F 30.1 °F 33.1 °F 92% 30.25 in 10.0 mi NE 5.8 mph - N/A   Overcast
7:53 AM 36.0 °F 32.1 °F 33.1 °F 89% 30.25 in 10.0 mi NE 4.6 mph - N/A   Scattered Clouds
8:53 AM 37.9 °F 34.4 °F 34.0 °F 86% 30.25 in 10.0 mi NNE 4.6 mph - N/A   Clear
9:53 AM 42.1 °F 37.7 °F 35.1 °F 76% 30.26 in 10.0 mi NNE 6.9 mph - N/A   Mostly Cloudy
10:53 AM 45.0 °F 40.6 °F 35.1 °F 68% 30.24 in 10.0 mi NE 8.1 mph - N/A   Clear
11:53 AM 46.0 °F 41.9 °F 34.0 °F 63% 30.22 in 10.0 mi NE 8.1 mph - N/A   Clear
12:53 PM 46.0 °F 41.4 °F 34.0 °F 63% 30.20 in 10.0 mi NNE 9.2 mph - N/A   Clear
1:53 PM 45.0 °F 40.1 °F 35.1 °F 68% 30.19 in 10.0 mi NE 9.2 mph - N/A   Partly Cloudy
2:53 PM 44.1 °F 39.0 °F 35.1 °F 71% 30.18 in 10.0 mi NNE 9.2 mph - N/A   Partly Cloudy
3:53 PM 43.0 °F 38.8 °F 35.1 °F 74% 30.18 in 10.0 mi NNE 6.9 mph - N/A   Overcast
4:53 PM 42.1 °F 37.1 °F 35.1 °F 76% 30.18 in 10.0 mi NNE 8.1 mph - N/A   Overcast
5:53 PM 41.0 °F 35.8 °F 35.1 °F 79% 30.18 in 10.0 mi NE 8.1 mph - N/A   Overcast
6:53 PM 41.0 °F 35.2 °F 35.1 °F 79% 30.18 in 10.0 mi NNE 9.2 mph - N/A   Overcast
7:53 PM 41.0 °F 35.2 °F 35.1 °F 79% 30.17 in 10.0 mi North 9.2 mph - N/A   Overcast
8:53 PM 39.9 °F 34.5 °F 36.0 °F 86% 30.18 in 10.0 mi NNE 8.1 mph - 0.01 in Rain Light Rain
9:53 PM 39.0 °F 34.0 °F 37.0 °F 93% 30.18 in 9.0 mi NNE 6.9 mph - 0.01 in Rain Light Rain
10:53 PM 39.0 °F 34.8 °F 36.0 °F 89% 30.17 in 10.0 mi NNE 5.8 mph - 0.00 in   Overcast
11:53 PM 37.9 °F 33.5 °F 36.0 °F 93% 30.17 in 8.0 mi North 5.8 mph - 0.01 in Rain Light Rain